Flag for Brazil Weather past 2 weeks in São Paulo, São Paulo, Brazil

Now
63 °F

Clear.


Feels Like: 63 °F
Forecast: 54 / 80 °F
Wind: 7 mph from East

Location: Sao Paulo Airport

Current Time: Aug 21, 2014 at 9:50:54 AM

Latest Report: Aug 21, 2014 at 9:00 AM


Visibility: 6 mi

Pressure: 30.27 "Hg

Humidity: 73%

Dew point: 54 °F

Location of São PauloLocation

Historic Weather in São Paulo — Graph

°F

São Paulo temperature yesterday

Maximum temperature yesterday: 73 °F (at 2:00 PM)
Minimum temperature yesterday: 55 °F (at 3:00 AM)
Average temperature yesterday: 63 °F

Past Weeks' High & Low Weather Summary

 TemperatureHumidityPressure
High84 °F (Aug 12, 2:00 PM)88% (Aug 8, 10:00 PM)30.42 "Hg (Aug 8, 10:00 PM)
Low48 °F (Aug 14, 12:00 AM)17% (Aug 6, 4:00 PM)30.04 "Hg (Aug 13, 2:00 AM)
Average63 °F67%30.26 "Hg
* Reported Aug 6 8:00 AM — Aug 21 8:00 AM, São Paulo, Weather by CustomWeather, © 2014

Note: Actual official high and low records may vary slightly from our data, if they occured in-between our weather recording intervals... More about our weather records

Advertising

São Paulo weather history for previous 24 hours

 ConditionsComfort  
Time TempWeatherWind HumidityBarometerVisibility
8:00 AM
Aug 21
59 °FPartly sunny.9 mph77%30.27 "Hg4 mi
7:00 AM59 °FPartly sunny.6 mph77%30.27 "Hg4 mi
6:00 AM59 °FMostly cloudy.7 mph77%30.24 "Hg4 mi
5:00 AM59 °FLow clouds.8 mph77%30.24 "Hg6 mi
4:00 AM59 °FMostly cloudy.5 mph82%30.24 "Hg6 mi
3:00 AM59 °FPartly cloudy.5 mph82%30.24 "Hg4 mi
2:00 AM59 °FPassing clouds.7 mph77%30.27 "HgN/A
1:00 AM59 °FPassing clouds.5 mph82%30.30 "Hg4 mi
12:00 AM61 °FPassing clouds.6 mph77%30.30 "HgN/A
11:00 PM
Aug 20
61 °FMostly cloudy.8 mph77%30.30 "HgN/A
10:00 PM61 °FPassing clouds.7 mph77%30.30 "HgN/A
9:00 PM61 °FPassing clouds.7 mph77%30.30 "HgN/A
8:00 PM61 °FMostly cloudy.9 mph77%30.30 "HgN/A
7:00 PM61 °FPassing clouds.13 mph77%30.27 "Hg5 mi
6:00 PM63 °FPassing clouds.12 mph73%30.27 "HgN/A
5:00 PM66 °FClear.13 mph68%30.24 "Hg10 mi
4:00 PM70 °FSunny.14 mph60%30.24 "Hg10 mi
3:00 PM73 °FSunny.12 mph50%30.24 "Hg10 mi
2:00 PM73 °FSunny.7 mph38%30.24 "Hg10 mi
1:00 PM72 °FSunny.7 mph44%30.27 "Hg10 mi
12:00 PM70 °FSunny.7 mph50%30.30 "Hg10 mi
11:00 AM68 °FSunny.8 mph56%30.30 "Hg10 mi
10:00 AM66 °FSunny.7 mph60%30.33 "Hg10 mi
9:00 AM61 °FPartly sunny.8 mph68%30.33 "HgN/A
Weather by CustomWeather, © 2014

See weather overviewHow to use our weather pages